RH
10 13 15 13 14 16 13 11 15 16 14 14 13 9 8 9 7 6 6 6 6 7 8 6 7 6 5 7 6 6 7 6 7 8 8 8 19 34 39 49 60 52 44 44 42 39 40 43 45 39 38 43 42 42 49 53 53 58 63 56 49 42 22 14 29 43 51 53 51 50 52 52 48 49 55 60 67 71 72 77 79 79 80 78 75 75
13 15 15 13 15 17 16 16 16 16 15 15 14 10 9 9 7 6 7 7 7 9 10 8 8 7 6 7 6 6 7 7 7 8 9 7 10 17 25 46 59 49 42 40 36 38 36 37 41 37 35 42 42 40 49 56 56 59 58 48 46 36 18 26 43 49 51 48 47 48 48 50 48 49 57 61 62 62 54 56 61 60 64 67 64 64
16 15 12 11 15 16 16 16 16 15 15 14 13 11 10 9 7 9 10 8 7 10 11 9 9 7 7 7 6 7 7 8 8 8 9 8 9 9 10 31 47 41 40 39 34 36 34 32 36 35 34 39 41 42 48 54 56 59 53 41 43 32 18 34 48 45 45 45 46 45 41 47 51 50 57 56 57 60 56 59 61 52 57 66 64 57
16 13 10 10 14 15 14 14 15 14 14 13 12 11 11 8 7 11 14 10 8 10 10 9 10 10 9 7 7 8 7 7 8 8 9 6 8 10 7 20 41 45 40 36 35 34 32 30 32 35 35 36 39 44 49 52 54 59 53 45 46 34 22 30 39 42 43 42 46 46 43 50 51 42 44 47 49 59 62 59 53 45 47 56 62 65
11 11 11 12 13 14 13 14 15 15 13 12 13 11 11 9 7 9 12 12 11 12 12 11 13 14 10 9 9 9 6 7 8 7 8 7 7 10 8 13 35 49 41 34 37 34 29 31 33 34 37 39 38 41 50 52 56 58 49 48 50 38 28 25 29 37 34 31 38 40 40 46 42 35 44 52 52 56 57 50 43 43 47 51 59 68
10 12 12 12 13 12 12 13 14 17 15 13 13 11 10 10 9 10 12 15 18 19 16 15 19 17 10 9 10 9 6 7 9 7 6 8 8 8 10 10 22 42 44 35 35 33 31 35 36 33 36 42 40 38 47 52 58 58 41 43 49 38 32 25 23 29 23 22 30 29 33 36 35 42 52 55 55 59 61 56 49 49 52 52 56 64
9 11 11 11 13 12 12 12 12 15 17 15 15 11 9 10 11 12 13 16 20 20 16 14 19 18 11 9 9 8 8 8 9 9 8 9 9 8 10 10 12 27 40 39 36 33 31 33 35 34 31 36 37 36 45 49 52 54 44 47 46 36 35 27 21 23 19 27 37 34 36 36 38 50 53 53 59 58 55 51 41 40 45 40 46 63
9 11 12 12 13 14 13 12 11 12 15 17 16 12 10 11 12 12 12 15 17 15 14 13 15 17 16 12 9 7 8 9 10 11 9 8 8 8 9 11 11 15 25 32 36 37 35 32 33 35 32 34 35 32 39 46 49 52 48 47 41 36 38 29 20 20 18 27 37 37 39 38 43 51 49 52 56 49 48 49 42 46 59 56 61 75
11 13 15 13 14 14 12 11 10 10 13 15 13 10 10 11 11 11 10 12 13 15 16 14 13 17 19 13 9 8 8 10 12 11 11 8 8 9 7 9 10 11 13 15 25 37 41 38 35 35 34 36 36 32 38 47 48 46 44 45 41 40 41 28 18 20 19 22 30 36 38 37 44 48 47 51 51 46 51 59 60 61 64 61 63 66
11 11 11 11 13 13 10 9 8 8 12 13 11 11 12 12 11 11 11 11 13 19 20 16 14 17 19 14 10 10 9 11 13 11 10 9 8 8 9 10 10 12 14 12 16 25 30 33 35 37 37 38 36 35 41 48 47 40 40 47 44 40 41 30 17 19 22 23 29 37 38 38 44 43 45 51 47 47 54 61 66 61 52 44 42 42
8 9 10 10 11 10 9 8 7 8 10 11 13 14 13 13 11 11 12 12 18 23 20 15 15 16 18 16 11 10 10 11 13 11 10 10 11 11 11 13 13 13 14 14 14 16 19 22 25 29 33 36 38 39 41 49 57 51 45 49 45 39 42 31 17 19 24 26 31 38 38 37 41 40 45 49 44 46 54 57 60 58 56 48 35 29
7 9 10 9 8 7 8 8 7 8 8 9 12 13 15 15 13 14 15 16 24 26 19 15 13 15 19 17 11 9 10 10 12 11 10 12 13 14 14 14 14 15 14 15 16 21 27 26 25 25 25 29 35 41 44 51 67 65 50 50 46 40 42 31 17 18 22 27 34 39 38 37 38 38 42 45 44 48 51 53 57 57 59 54 38 28
10 9 8 7 7 6 7 8 7 7 8 9 10 12 17 19 20 26 24 23 27 24 18 17 15 16 16 14 11 9 9 11 11 10 11 13 13 14 15 14 15 18 18 20 24 30 32 28 28 29 26 29 35 43 46 46 59 62 50 49 46 40 40 29 18 19 21 28 38 40 38 38 36 34 40 42 42 49 49 49 54 54 55 55 47 40
14 12 8 8 8 6 7 8 8 8 8 10 10 12 18 22 29 36 31 29 31 26 19 17 18 19 15 12 11 9 9 11 10 11 12 14 14 15 14 13 17 21 22 28 35 39 37 34 36 35 29 32 37 42 47 47 52 56 57 58 48 41 40 25 16 22 22 27 41 43 39 38 31 25 33 40 39 45 48 47 50 52 53 54 52 50
19 18 12 9 9 7 7 7 7 8 8 9 8 10 15 19 28 35 30 28 29 25 21 18 19 21 17 13 10 8 10 10 10 11 12 14 16 16 14 12 17 24 28 36 43 45 43 43 46 44 39 39 40 42 51 55 55 57 66 68 50 41 39 21 16 26 23 27 43 47 42 40 32 20 24 36 38 39 43 44 45 48 50 51 52 52
16 15 9 8 8 7 7 6 5 7 8 9 7 10 14 15 19 25 26 25 25 25 23 20 19 17 15 14 10 8 11 10 10 10 11 14 14 14 14 15 20 29 33 39 46 49 48 47 47 47 46 47 46 46 48 52 57 56 59 65 57 47 36 20 20 29 26 30 44 49 45 43 36 24 23 34 38 36 41 42 39 42 47 48 51 49
13 12 7 7 8 7 8 6 5 7 9 9 9 11 12 10 13 21 24 23 23 26 23 19 19 15 15 17 12 10 12 10 9 10 10 12 13 14 16 19 24 31 36 41 46 48 49 51 50 47 47 49 49 50 48 49 56 55 51 58 61 51 37 25 22 27 30 34 43 49 48 44 41 34 28 34 38 35 39 42 39 40 44 46 49 48
14 14 9 7 8 7 6 6 5 5 7 8 9 9 8 8 12 17 22 21 22 28 24 19 19 15 14 16 13 12 13 11 9 9 10 11 14 16 19 23 28 33 37 42 47 47 48 53 54 50 49 51 50 50 50 51 53 52 49 53 55 48 42 36 26 24 29 34 42 49 50 46 44 41 36 36 39 38 38 42 43 40 41 45 49 50
15 17 13 7 8 7 4 7 9 7 6 7 7 6 6 11 14 15 20 21 22 27 25 18 17 13 11 13 14 14 14 12 10 9 10 12 14 16 21 26 31 35 38 41 47 50 52 55 58 56 51 51 53 51 50 51 50 50 48 48 50 49 48 48 41 33 31 36 45 51 50 47 45 44 43 38 39 42 41 41 44 43 40 45 49 53
13 19 20 11 6 6 5 8 12 10 7 6 6 6 6 9 12 14 17 18 20 24 23 21 17 13 14 16 14 15 14 12 12 11 10 11 12 15 21 27 31 34 37 40 45 51 53 56 59 60 57 54 55 55 54 55 54 55 57 55 53 50 47 52 54 48 41 41 48 51 49 50 49 47 46 43 42 46 46 44 45 46 44 45 49 55
12 18 24 16 8 8 9 10 11 10 9 7 8 9 9 10 10 10 12 12 16 20 21 23 19 17 25 23 12 13 15 14 13 13 12 11 11 15 20 27 30 33 36 41 46 51 53 56 57 60 62 62 62 60 59 61 59 59 62 62 57 50 46 52 58 56 51 47 50 52 51 51 52 50 48 46 45 47 50 47 43 45 46 47 49 53
15 18 22 18 12 11 10 8 7 8 8 9 10 10 11 14 17 21 20 13 12 16 17 20 19 21 27 20 10 12 16 14 12 12 12 11 12 17 22 27 30 32 35 40 46 51 53 55 56 57 58 60 64 66 66 66 62 60 61 60 58 56 53 56 59 58 55 53 53 51 50 52 51 48 46 45 45 49 51 48 45 47 49 49 49 52
21 21 22 20 15 12 10 7 6 6 6 8 11 10 10 14 18 24 26 19 16 18 19 19 20 24 25 15 10 14 13 12 12 12 12 11 14 21 25 29 31 32 34 37 41 46 50 52 54 57 57 54 56 60 65 67 66 64 61 59 59 57 56 57 59 59 59 59 57 51 52 56 53 50 52 50 49 51 51 49 49 49 47 47 50 52
21 19 21 21 16 10 8 6 5 4 5 8 10 9 9 11 11 15 18 17 18 18 18 20 21 28 31 21 14 14 12 11 13 12 12 13 19 26 26 28 31 31 33 36 38 40 43 46 49 52 55 53 50 49 53 60 66 67 65 65 65 61 58 59 58 59 59 58 58 55 54 58 58 57 57 53 52 52 51 50 52 52 50 51 55 56
22 20 21 24 22 18 14 9 7 6 7 8 9 9 10 10 10 13 13 14 19 17 16 21 22 26 31 23 13 11 11 12 13 13 14 18 23 25 26 29 31 31 31 32 34 34 35 38 40 43 47 50 51 50 49 54 59 62 64 67 69 67 66 66 63 62 62 61 61 64 66 69 68 64 56 50 51 53 50 51 52 53 55 56 56 59
24 23 23 26 30 28 22 16 14 13 12 11 10 11 12 12 13 16 15 16 21 20 18 22 21 21 24 20 17 18 14 12 14 13 15 21 25 23 25 30 30 29 30 29 28 29 28 29 31 34 37 41 46 49 49 51 52 55 58 60 64 67 68 68 67 67 70 71 69 71 76 78 77 73 64 55 52 51 50 52 54 54 55 57 57 57
22 23 22 24 26 25 20 16 13 14 15 14 13 12 12 12 13 17 18 19 22 23 24 22 20 23 23 21 29 35 26 18 17 15 16 22 26 25 27 32 31 29 29 29 29 28 28 28 28 29 31 32 37 40 42 45 46 47 51 55 59 62 64 66 67 69 74 78 77 77 79 79 77 73 65 57 52 51 51 54 58 58 55 56 56 54
19 21 21 21 21 18 15 14 12 12 13 13 12 12 12 12 14 19 23 22 21 26 29 24 22 28 25 19 25 32 29 24 21 21 25 27 28 31 32 31 29 28 29 31 31 31 31 31 30 29 30 30 32 36 38 41 44 43 44 48 50 51 52 57 59 59 63 65 65 67 67 64 60 52 46 44 42 40 43 48 51 51 50 55 59 59
19 22 20 19 19 16 13 13 12 13 13 11 12 13 12 13 15 20 22 19 19 26 29 24 26 32 26 18 18 20 23 25 21 21 27 26 24 32 35 30 24 25 29 31 33 34 35 35 34 32 33 33 34 37 39 41 43 43 42 41 40 38 38 40 41 40 42 41 37 39 39 36 37 34 33 37 38 37 40 42 42 41 43 53 59 59
22 25 21 19 20 16 14 14 12 12 13 12 12 12 10 12 14 17 18 15 17 23 23 22 29 34 25 18 18 17 18 21 19 17 20 19 20 26 29 26 22 21 23 26 31 36 38 38 37 34 33 34 35 37 39 42 43 43 43 40 37 34 32 33 36 37 38 33 26 27 31 33 35 35 35 43 48 47 45 43 46 47 46 51 56 54
25 27 22 22 25 21 17 15 13 13 12 12 12 11 10 13 15 17 20 19 21 24 22 25 35 36 24 16 17 18 17 18 17 17 17 16 16 19 21 22 23 21 18 18 25 33 39 41 39 37 36 36 36 37 38 41 42 42 41 36 33 35 35 34 35 36 38 36 29 29 36 38 38 37 39 44 47 49 51 53 56 57 54 56 58 57
26 27 25 28 33 30 21 16 16 13 11 13 14 15 15 17 18 19 19 19 23 26 27 30 33 30 22 18 19 20 21 22 23 25 26 22 17 18 21 22 22 22 21 18 19 28 38 41 40 39 40 39 39 40 38 36 39 42 40 33 29 34 37 33 28 26 32 37 36 36 38 37 35 36 39 42 42 43 46 48 52 54 54 57 59 57
23 27 29 30 36 33 22 17 18 18 21 23 20 20 21 20 19 19 19 20 23 26 29 30 27 24 24 25 24 25 27 30 31 32 34 31 26 25 27 26 22 22 24 21 20 26 34 39 41 42 41 38 37 38 36 33 37 44 44 38 35 36 36 32 27 23 26 32 36 37 36 35 36 39 42 42 41 35 30 34 46 53 55 58 59 57
22 25 27 27 34 35 25 21 24 30 34 29 19 18 21 21 21 22 23 25 23 22 24 23 19 22 25 25 24 25 28 30 31 31 31 31 29 26 28 30 27 24 26 26 24 27 33 38 44 45 41 38 38 38 35 34 40 45 42 37 37 38 35 32 33 33 32 32 35 35 35 38 41 44 43 40 37 31 27 34 45 50 55 59 57 56
22 23 25 26 30 33 27 26 36 43 36 23 16 17 18 17 20 22 23 23 20 21 24 24 23 24 24 23 22 23 24 27 29 31 31 30 31 30 30 33 34 32 33 33 31 34 39 44 48 48 43 42 42 40 34 35 40 42 37 36 38 39 36 32 33 36 36 36 36 34 36 42 45 44 40 36 35 36 37 42 45 46 54 62 61 61
21 23 26 28 29 33 32 34 42 41 25 15 21 28 28 26 25 26 29 28 24 24 27 27 27 26 24 24 24 22 23 25 27 30 29 28 32 35 33 35 39 40 39 38 40 45 47 48 48 47 46 44 41 35 32 35 40 40 36 38 39 38 37 34 32 33 34 35 35 34 38 45 46 44 42 38 37 39 41 45 46 46 52 59 62 65
20 24 30 32 32 35 38 37 36 33 25 26 35 40 41 41 38 37 41 38 29 26 27 27 26 25 26 28 30 29 28 27 30 33 31 30 31 32 33 34 37 43 48 48 49 52 54 52 48 46 46 45 41 38 37 38 41 41 39 39 38 36 36 35 33 32 33 34 33 32 38 45 46 46 47 44 41 42 43 40 39 42 48 55 59 63
20 24 29 34 35 33 36 39 38 37 39 44 45 39 36 38 39 38 39 37 32 30 31 30 28 28 30 31 33 34 32 32 40 44 38 35 34 31 31 32 31 38 51 55 54 54 53 50 46 44 43 43 42 41 40 38 40 43 43 41 39 38 37 36 34 33 33 34 33 33 37 42 44 46 47 46 44 44 40 34 33 39 46 51 56 60
21 23 25 31 35 33 38 45 44 43 52 54 45 34 29 33 35 32 33 39 41 37 32 30 30 32 33 33 34 35 34 38 49 49 39 38 39 35 34 34 31 32 39 42 45 46 44 41 41 42 42 41 40 40 39 40 42 44 44 42 40 40 39 39 38 36 36 36 35 35 36 38 42 45 46 48 49 46 41 33 32 38 45 48 53 60
23 26 26 32 38 36 40 45 37 41 58 58 42 34 32 29 30 36 44 50 47 40 34 33 34 34 34 35 36 36 36 40 44 43 39 39 40 38 37 37 36 35 35 34 35 36 35 35 37 39 41 40 39 39 39 41 42 41 42 41 41 40 40 40 39 39 39 39 38 37 36 37 40 43 45 49 52 52 50 38 27 31 41 47 52 57
37 36 31 34 38 37 44 48 39 44 63 57 38 34 34 29 34 46 54 52 44 38 37 35 35 36 36 37 37 37 38 39 39 40 41 41 41 41 41 41 40 40 38 36 35 34 35 36 37 38 39 39 39 39 40 41 40 40 41 41 41 41 40 41 42 42 42 42 41 39 37 35 36 38 41 46 49 54 55 43 25 25 38 47 52 56
49 49 42 41 41 38 42 46 40 47 60 51 33 29 31 37 48 50 46 41 37 35 35 33 33 34 35 35 36 37 38 39 39 40 42 42 43 43 43 42 41 41 41 40 39 38 37 37 37 38 37 36 36 37 38 39 40 41 41 40 40 42 42 42 43 43 43 43 41 40 39 37 36 37 40 43 45 48 55 52 40 35 41 47 52 57
38 45 45 42 41 41 43 47 50 56 53 36 28 30 32 39 45 39 31 33 33 32 32 31 30 31 33 34 35 37 38 39 40 41 41 42 42 42 41 41 41 41 41 41 40 39 37 37 36 36 35 34 34 35 34 35 38 39 41 41 41 42 43 43 43 43 43 43 41 41 41 39 38 37 38 41 43 43 49 57 55 50 51 55 58 61
30 36 38 35 37 43 46 48 54 56 42 27 27 32 30 31 31 28 28 29 27 27 28 27 27 28 29 32 34 36 38 38 39 40 40 40 39 39 40 40 40 40 40 39 39 38 38 37 37 36 35 34 34 35 35 35 35 36 39 41 42 43 43 43 44 44 45 45 43 42 41 41 40 39 38 40 44 44 47 55 60 61 63 64 61 64
26 27 31 32 33 37 37 35 36 35 27 23 26 26 25 26 26 24 24 23 23 25 25 25 28 30 31 33 35 35 37 36 37 39 39 37 36 35 35 35 35 37 37 37 38 38 37 37 37 36 35 35 35 35 35 35 36 37 39 41 42 43 43 42 43 45 45 46 46 44 42 41 40 41 41 42 45 47 48 54 61 67 72 68 62 69
25 24 26 28 28 27 27 25 23 23 22 22 24 23 22 23 22 24 27 27 28 30 29 29 31 31 31 32 32 32 33 33 33 35 35 35 34 33 33 33 32 32 33 32 33 34 34 34 34 33 33 33 34 35 35 35 37 37 38 40 41 41 43 43 44 44 44 47 49 47 46 44 42 42 42 41 44 47 48 53 61 70 76 74 68 75
30 29 27 28 29 30 31 26 22 23 24 22 21 21 21 24 28 33 37 38 39 40 40 38 37 34 34 34 33 34 34 35 36 37 35 35 35 32 32 32 31 31 32 30 30 30 29 29 29 29 30 30 31 34 36 37 38 38 38 40 40 40 42 43 43 41 42 45 49 51 52 51 48 46 45 43 43 44 46 54 64 70 76 79 75 77
29 29 28 27 27 30 31 26 21 22 23 22 22 24 28 35 40 42 43 43 44 45 45 45 45 44 42 42 43 45 45 45 47 46 43 42 42 39 38 36 34 32 32 30 30 29 28 29 29 29 30 32 33 35 38 41 43 44 44 43 42 41 41 40 41 41 41 42 45 48 49 49 47 46 49 50 49 49 54 65 71 72 77 86 87 84
26 28 27 26 27 28 27 23 25 29 29 27 29 34 39 44 46 46 47 47 47 47 48 51 55 55 55 56 58 61 62 61 60 59 57 54 53 50 48 47 45 42 38 35 35 33 31 33 34 34 35 36 37 40 44 46 47 47 47 46 44 43 43 42 41 40 40 40 42 43 44 45 44 44 47 52 54 58 67 76 78 75 77 84 90 91
26 29 28 30 34 34 30 28 35 42 41 37 38 43 46 48 48 49 50 50 51 53 55 58 60 61 63 64 63 64 67 65 64 67 67 65 62 59 57 56 54 50 46 45 46 45 42 43 45 45 46 46 48 52 56 58 58 55 52 49 47 45 46 46 45 45 44 44 46 47 47 47 46 45 49 53 57 64 75 81 81 79 76 77 85 92
31 32 33 37 41 40 37 37 42 48 47 45 46 49 48 48 49 50 52 54 57 58 60 63 65 65 65 65 64 66 69 68 69 74 77 75 72 68 64 63 61 58 57 59 59 59 59 59 58 58 57 57 59 64 67 68 69 66 61 57 55 51 51 52 53 54 54 54 55 56 55 54 52 51 53 56 60 69 81 86 85 86 84 81 84 87
Wind_Speed
9 7 6 8 5 3 6 4 3 8 10 12 13 5 6 7 6 7 4 9 5 5 8 9 11 12 8 9 9 11 14 10 9 9 8 10 15 26 30 33 38 39 34 25 25 25 24 24 24 24 22 21 23 23 22 23 20 20 19 16 14 11 10 10 10 8 7 5 4 6 5 3 3 1 2 4 3 2 3 4 5 4 3 3 4 4
6 6 8 10 1 3 4 6 5 7 9 9 10 7 4 6 6 5 3 10 7 2 5 8 12 11 9 12 9 9 8 5 7 10 8 11 12 15 18 31 42 36 32 28 26 28 25 25 27 24 23 23 24 25 25 25 22 20 18 15 12 11 10 10 11 8 7 5 4 7 5 3 5 5 5 4 3 3 3 4 5 4 3 3 2 4
5 8 13 11 3 3 2 6 6 7 8 8 7 6 5 7 5 2 6 6 8 4 6 9 11 10 10 12 8 4 6 6 9 14 13 14 13 13 12 24 38 27 27 31 27 29 26 24 28 27 27 27 25 25 27 26 24 21 18 14 11 10 10 12 12 10 9 7 5 6 5 6 8 8 8 4 4 4 2 3 3 2 5 4 4 2
6 6 9 5 5 2 4 4 6 6 6 7 6 6 6 7 8 2 5 2 3 3 5 9 9 9 7 7 6 9 13 10 12 17 19 16 13 14 14 16 33 30 29 30 26 27 26 25 30 30 29 30 26 25 27 27 25 23 21 17 13 12 12 13 14 12 11 9 8 8 7 8 8 7 6 4 5 6 4 5 3 3 5 6 8 8
11 1 7 7 5 1 5 4 5 5 6 7 8 9 9 8 9 5 4 3 4 3 5 10 8 6 7 6 7 14 13 10 13 18 15 12 12 14 13 9 26 34 32 29 27 28 26 27 33 32 29 29 28 27 29 29 28 27 24 19 16 15 14 14 15 13 13 11 10 11 10 9 7 5 7 6 7 7 5 5 4 5 5 5 8 9
7 1 7 5 3 4 5 5 7 6 6 8 9 11 12 12 11 7 2 5 3 5 6 7 7 6 8 10 11 12 8 9 14 13 9 11 13 14 13 11 17 31 36 30 28 30 29 28 31 31 29 29 30 30 31 30 29 28 23 19 19 19 17 15 14 13 13 12 10 9 9 9 9 9 10 7 8 8 6 5 5 6 7 7 8 8
3 1 1 2 3 5 7 7 8 8 6 6 4 6 11 12 12 9 4 4 4 5 6 8 7 6 6 9 12 13 12 12 11 9 10 14 15 14 13 12 11 20 31 28 27 29 27 26 28 29 29 32 32 31 32 32 30 27 23 22 22 22 19 17 16 14 14 13 10 9 9 9 11 12 12 9 8 9 7 5 5 7 7 8 9 10
5 4 1 3 4 6 8 7 8 10 8 4 1 6 10 9 11 11 8 6 6 6 5 8 8 7 6 8 8 10 11 12 10 10 11 13 16 16 14 13 12 14 21 25 28 29 26 30 33 30 30 35 36 32 32 35 34 29 27 25 22 22 21 19 17 15 15 14 13 13 12 11 12 12 12 11 9 8 7 6 6 8 9 9 10 11
3 5 5 6 7 6 7 8 10 11 9 5 3 7 10 9 11 11 8 8 7 7 6 7 9 7 5 8 8 8 9 9 10 10 10 11 13 15 14 15 16 16 17 17 19 24 28 34 37 33 32 35 34 32 33 37 38 34 30 27 23 23 24 22 18 16 15 14 15 16 13 14 14 11 11 11 10 9 8 8 8 8 8 8 9 9
4 6 5 5 7 7 9 12 12 10 8 5 5 6 8 9 10 9 8 7 6 7 8 8 9 6 6 7 8 8 9 8 8 8 9 9 9 5 4 5 5 4 5 4 7 14 22 28 32 31 32 35 34 32 32 32 34 36 32 28 26 25 25 24 19 17 17 15 17 17 15 15 13 11 13 12 10 10 10 10 9 7 6 8 8 8
7 5 4 6 8 8 10 12 9 5 5 4 3 6 8 9 9 8 7 6 6 7 9 12 12 8 7 6 6 6 5 7 7 8 7 7 4 2 2 2 3 5 7 5 6 8 10 17 25 27 24 28 32 33 33 30 29 35 35 31 29 28 27 26 21 19 19 17 18 19 17 15 13 13 16 13 10 11 11 11 9 7 6 6 6 7
9 7 6 8 11 10 9 9 6 4 6 5 4 6 7 6 7 6 5 5 6 7 7 11 13 11 8 5 6 4 6 7 5 7 7 8 7 5 4 1 1 2 4 5 5 6 7 2 11 20 21 24 29 33 36 33 31 35 36 32 32 31 29 27 23 21 20 18 20 20 19 16 14 16 16 12 11 12 12 11 10 9 8 5 3 5
8 7 8 10 11 10 9 6 6 7 7 6 6 6 6 5 4 5 6 5 6 7 6 6 8 9 7 6 6 1 8 8 4 4 9 10 9 10 7 4 3 3 2 3 5 8 9 7 3 12 20 26 31 35 36 36 36 35 34 35 37 35 33 29 25 22 20 19 20 21 20 18 15 16 15 12 12 13 12 12 12 10 8 6 3 3
5 8 10 8 10 10 8 6 6 5 6 6 6 6 6 5 5 6 6 6 6 6 6 5 5 5 5 6 7 4 7 9 7 8 11 10 10 10 7 5 6 5 4 6 7 7 4 3 4 5 15 27 36 35 32 35 37 35 35 38 40 37 33 31 25 21 20 21 22 22 22 20 16 16 15 13 13 14 13 13 12 11 9 7 5 4
6 6 8 9 6 9 8 8 8 6 5 7 6 6 6 4 5 6 5 5 5 4 6 6 3 3 3 2 3 5 7 9 8 9 10 9 9 9 7 5 5 6 8 7 7 7 4 3 2 2 4 20 35 34 29 29 30 32 33 35 37 36 34 31 25 21 21 22 23 22 22 22 18 15 15 14 13 14 14 14 13 13 10 8 7 7
9 6 6 8 3 6 6 9 7 8 6 3 4 6 6 4 5 5 5 6 5 4 5 5 4 3 1 2 1 6 9 9 8 9 10 10 10 10 7 5 6 8 9 8 9 10 8 7 3 1 3 11 29 34 30 29 27 29 30 29 29 31 32 31 24 21 22 23 24 23 23 22 19 16 17 16 14 14 14 14 13 14 12 10 10 9
7 4 5 9 5 5 9 8 3 4 4 1 3 5 4 5 5 5 6 6 5 6 5 4 5 5 3 3 5 7 8 9 9 10 11 12 10 9 7 6 7 9 10 10 10 10 9 10 8 3 4 8 20 28 28 26 25 27 28 27 26 27 28 28 24 21 22 23 23 23 22 21 19 18 18 18 16 15 15 14 13 13 13 12 12 11
3 4 3 5 6 9 10 5 4 6 5 4 5 3 2 5 6 5 5 5 5 6 5 4 7 8 6 5 7 9 9 9 9 9 11 12 11 9 7 8 9 10 11 11 10 10 10 9 10 7 4 6 10 17 20 20 21 23 25 24 25 26 25 25 23 22 23 23 22 22 21 20 19 17 17 18 16 15 16 16 14 13 13 13 13 13
2 5 6 5 8 9 8 5 6 8 9 9 8 6 4 4 5 4 4 5 5 5 5 7 9 8 6 3 7 11 10 9 10 11 11 12 12 10 10 10 10 12 12 11 11 11 11 10 11 11 8 6 6 9 14 17 17 19 21 23 26 27 24 21 19 20 21 21 19 19 19 18 18 17 16 16 15 14 15 16 14 13 13 13 13 13
3 4 5 7 11 9 4 4 4 6 9 12 9 8 6 5 5 5 4 4 5 6 5 7 8 5 3 2 4 9 9 9 9 8 8 10 12 12 12 11 10 12 12 12 13 12 12 11 11 13 12 9 7 7 11 14 14 16 18 20 24 26 22 17 16 16 17 18 16 15 17 17 18 19 18 16 15 14 15 15 14 12 12 14 13 14
4 3 3 7 10 8 4 3 5 6 6 7 7 7 6 5 5 6 5 5 6 6 5 6 6 2 1 2 2 6 8 9 7 6 6 8 11 12 13 13 12 13 13 14 14 13 14 13 12 13 11 9 11 11 9 10 11 13 16 18 21 25 23 21 19 17 17 17 16 15 16 17 17 18 19 18 17 16 16 16 13 11 12 13 13 14
2 3 5 6 7 7 6 6 9 8 7 6 5 5 6 5 4 5 7 6 6 6 5 6 6 1 1 1 1 3 5 5 7 8 7 8 11 13 14 14 14 16 16 15 16 15 15 15 14 13 11 9 11 12 12 13 14 15 17 18 20 22 21 19 18 18 17 18 17 15 13 15 17 17 17 18 19 17 17 17 14 12 14 14 13 14
2 2 5 7 7 8 10 11 13 11 7 7 8 7 7 6 3 4 7 5 5 6 5 7 5 1 1 1 2 1 1 1 6 8 7 9 13 15 15 15 14 16 18 17 17 17 17 17 16 15 13 11 12 11 10 13 16 17 17 16 17 20 20 18 16 18 18 16 15 15 13 13 14 15 15 16 18 18 17 17 16 16 16 15 15 15
2 2 5 7 7 9 11 13 15 13 8 7 8 7 8 9 7 7 7 5 5 7 6 7 5 1 3 4 3 0 3 4 8 11 9 10 17 16 13 14 14 15 18 18 18 19 18 18 17 16 15 14 12 12 10 9 12 17 19 18 17 16 18 17 16 16 16 15 14 14 14 14 13 15 16 16 18 19 20 19 18 18 15 14 15 15
1 2 4 6 6 7 8 8 9 9 7 6 6 5 7 11 11 10 8 6 6 8 9 8 6 2 1 2 1 2 4 3 7 11 9 11 17 15 12 13 14 15 17 17 18 18 18 18 17 17 16 15 14 12 11 12 12 13 17 19 20 18 17 17 15 13 13 15 16 15 14 15 14 16 18 18 18 20 22 21 21 19 16 14 17 17
3 3 4 6 6 6 6 4 3 3 5 5 4 5 8 10 11 9 7 6 6 8 9 8 7 2 3 2 2 5 5 4 5 10 11 15 16 13 13 16 15 15 15 16 17 17 17 17 16 17 16 15 16 14 13 11 10 10 11 12 15 17 18 19 18 17 15 15 17 18 17 15 13 13 17 20 21 21 22 22 22 22 21 19 18 19
3 4 6 8 8 8 9 9 10 8 8 8 8 10 11 9 10 9 6 6 6 7 7 8 8 6 1 2 2 5 7 8 3 3 5 13 17 11 11 15 13 12 14 14 16 16 16 17 17 17 16 15 15 15 14 14 12 10 10 10 12 14 15 16 17 17 16 16 16 17 16 14 12 9 9 13 16 18 19 19 19 21 23 23 21 23
3 5 8 11 12 13 14 15 15 13 13 13 12 13 14 11 10 9 7 8 8 7 8 8 8 9 8 7 4 4 5 7 5 6 8 4 14 12 11 13 13 13 13 12 13 15 16 18 18 17 17 15 15 15 14 14 14 14 13 12 12 13 13 14 15 14 14 14 14 14 13 12 11 9 7 6 7 8 8 8 9 12 15 17 20 23
4 6 9 11 14 15 16 16 15 14 14 14 14 15 15 14 13 11 10 11 10 8 10 10 9 10 10 11 11 6 4 3 6 6 7 7 8 12 15 15 14 14 14 11 12 13 14 17 19 19 19 17 15 14 13 13 12 12 12 11 11 12 12 12 11 10 9 9 10 11 9 7 6 6 4 3 2 4 6 7 8 10 12 14 17 20
4 6 8 10 14 15 15 15 15 15 14 14 16 17 16 15 15 14 14 14 13 12 14 14 11 10 9 9 12 12 7 5 8 7 8 9 6 9 13 14 13 13 13 13 13 12 10 13 17 18 18 17 16 14 13 12 11 11 11 10 10 11 11 11 11 10 9 7 7 8 6 3 3 3 3 3 2 1 3 5 6 8 13 16 17 18
4 4 6 7 10 12 13 14 15 16 16 16 17 17 16 15 15 14 14 12 11 12 13 12 10 7 8 9 10 13 14 12 12 11 12 14 13 13 13 13 14 17 16 13 13 14 12 11 14 17 17 17 17 15 15 13 11 10 9 8 9 9 8 8 9 9 8 6 5 7 7 5 4 4 3 4 3 2 1 2 4 5 9 13 14 16
4 3 5 6 7 8 10 13 15 16 17 17 17 16 16 15 13 12 13 11 10 11 10 9 8 6 6 9 10 11 14 14 12 12 15 17 16 14 14 17 18 16 16 16 12 14 15 11 11 14 15 16 15 14 13 11 9 8 7 6 6 7 5 5 4 5 7 7 5 6 6 6 5 4 2 2 3 2 3 3 4 5 7 9 12 15
4 5 5 6 7 8 11 13 13 14 14 12 10 9 11 13 13 13 12 10 9 9 7 6 6 6 9 9 8 9 11 13 15 16 18 19 14 10 10 14 16 14 15 17 12 12 15 12 10 11 11 12 12 11 12 10 9 9 7 5 6 6 5 4 3 5 7 8 7 5 4 3 4 4 2 2 2 3 4 3 3 5 7 8 10 12
7 7 6 6 6 8 11 12 12 11 10 7 7 8 9 11 12 11 10 10 11 9 8 8 7 8 10 10 8 7 7 9 14 16 15 16 15 13 13 13 11 9 11 13 9 11 13 12 11 8 7 8 9 10 11 9 8 9 7 6 6 6 5 4 4 5 5 6 6 5 3 3 4 3 3 3 4 5 5 3 4 6 7 9 10 10
7 6 6 6 6 8 9 9 10 10 7 7 9 9 9 9 9 10 11 11 11 10 11 12 10 9 11 12 11 9 8 8 10 15 16 13 14 13 11 12 12 12 13 12 4 8 11 13 12 7 6 7 6 6 6 5 6 7 6 6 7 7 6 6 6 6 5 5 5 4 4 4 4 3 3 4 4 4 4 3 4 5 6 8 9 9
7 6 5 6 6 7 7 7 9 8 9 11 9 8 9 6 6 8 8 8 9 10 11 10 10 10 12 14 14 13 12 11 9 11 13 10 11 13 13 14 13 11 7 1 7 11 11 11 10 7 5 5 2 1 2 4 5 5 5 6 7 6 6 6 6 5 6 6 4 4 4 4 3 2 2 3 4 3 3 4 5 5 6 8 9 10
8 6 4 5 6 6 7 8 9 10 11 9 5 12 12 8 6 4 4 6 9 11 12 9 8 9 11 14 19 18 15 12 8 9 13 11 8 8 11 12 12 9 6 5 9 10 8 6 5 4 2 1 1 1 1 1 2 3 5 6 6 6 7 7 6 6 6 5 4 4 5 5 4 3 3 4 4 3 4 5 7 6 6 8 10 10
8 5 4 6 6 6 7 8 8 9 7 2 5 9 11 12 11 8 4 4 7 12 15 11 8 10 11 13 19 19 14 8 4 6 15 18 14 10 8 9 9 8 7 3 4 5 1 1 1 2 3 4 3 3 4 5 4 4 5 6 7 7 7 7 7 6 6 5 5 5 5 5 5 5 6 6 5 5 6 7 7 7 6 8 10 11
6 5 5 6 7 7 7 7 7 6 2 4 6 7 10 11 10 8 3 2 9 16 15 10 10 12 12 14 16 14 9 4 2 6 14 19 19 16 11 10 11 9 7 4 4 5 7 6 5 6 8 9 7 6 6 7 6 6 7 7 8 8 8 8 7 6 6 6 6 6 7 7 8 8 8 8 7 7 8 7 7 7 7 9 10 12
6 6 6 7 8 7 7 7 6 3 2 7 9 10 12 10 8 6 3 1 11 17 15 12 13 13 12 14 14 10 6 5 5 9 15 17 17 17 14 13 14 14 12 10 9 10 10 9 7 7 9 11 11 10 9 9 9 9 10 10 10 10 10 10 9 9 9 8 8 8 8 9 10 10 9 9 8 9 9 9 9 9 8 9 11 12
3 5 6 6 8 7 6 7 6 1 1 5 10 13 14 10 5 3 3 4 10 15 14 13 13 13 13 14 12 9 9 11 12 13 16 16 16 17 17 15 15 15 14 15 15 15 14 13 11 10 11 13 13 12 11 12 13 13 12 12 12 13 13 12 12 12 11 11 11 11 11 11 11 11 10 10 10 10 11 11 11 10 10 11 11 13
2 3 4 5 7 6 5 7 6 2 1 5 10 13 11 7 3 3 5 8 12 14 15 14 13 13 13 14 13 13 14 16 16 17 18 17 17 19 18 17 16 16 17 18 18 17 16 16 16 15 16 16 15 15 14 14 15 16 16 15 15 14 14 13 13 13 14 14 14 13 13 13 13 13 13 12 12 13 13 13 12 11 11 11 12 15
2 2 4 4 5 5 5 7 6 3 2 8 10 9 7 5 5 8 10 11 13 14 16 16 15 14 15 15 16 16 17 17 18 19 20 20 20 20 20 20 20 20 20 20 20 19 19 19 20 20 21 20 18 18 17 17 18 18 19 19 18 17 17 17 16 17 16 16 16 16 16 16 16 16 16 16 16 15 15 14 13 12 12 12 15 17
1 2 4 3 2 3 5 4 1 3 4 10 11 7 6 7 10 12 13 13 15 16 17 17 17 17 17 17 18 18 18 19 20 20 22 23 22 22 23 22 22 23 23 22 22 22 22 22 23 24 24 23 22 21 21 21 21 20 20 21 20 19 19 19 18 19 19 19 19 19 18 18 18 18 18 18 17 17 17 16 14 13 14 16 18 19
1 3 4 3 2 3 5 5 4 4 8 10 11 10 11 13 14 15 16 17 17 17 17 17 18 18 18 18 19 20 20 21 21 22 24 26 26 26 26 26 25 26 26 26 25 25 25 25 25 25 26 25 24 24 23 23 23 23 23 23 22 22 22 22 22 22 21 21 20 19 19 19 19 18 18 18 18 18 18 17 15 15 17 17 18 18
7 9 7 3 4 6 7 9 10 11 12 12 12 13 14 15 15 16 16 17 18 18 17 17 18 19 20 22 23 24 24 24 24 25 26 27 28 28 28 28 29 28 29 29 29 29 28 28 28 29 28 27 26 26 26 25 24 25 25 25 24 23 23 22 23 24 23 22 22 21 20 20 19 19 18 18 18 18 19 18 17 17 17 16 16 16
9 10 6 5 6 6 6 6 9 12 14 15 16 15 14 14 16 18 18 18 19 19 19 19 21 22 24 25 26 27 27 27 27 28 28 28 29 29 29 30 30 30 31 31 30 30 30 30 30 29 28 27 26 25 25 25 25 25 26 25 25 25 24 25 26 27 26 24 23 21 20 20 21 21 20 20 19 19 19 20 20 18 16 16 16 17
6 8 5 6 7 6 7 9 12 14 15 14 13 13 14 17 19 20 20 20 20 20 20 21 22 23 24 26 26 28 29 29 29 29 29 29 30 30 30 31 31 31 32 32 31 31 30 29 29 29 29 28 27 25 23 23 24 25 25 26 27 27 27 27 28 27 26 24 23 23 23 23 23 22 19 19 20 21 20 20 19 18 16 15 16 17
7 6 6 6 6 6 7 9 11 12 11 12 14 17 19 21 20 20 20 20 20 21 20 20 21 21 22 25 26 26 27 28 28 27 28 29 30 30 30 31 32 33 33 32 32 31 30 29 29 28 29 30 28 26 25 24 25 26 25 26 27 28 28 29 27 27 26 25 26 26 25 24 25 22 18 17 20 22 21 19 18 18 17 16 16 16
8 6 5 5 5 5 6 9 11 9 8 12 16 19 20 20 20 19 19 19 19 19 19 20 21 21 21 23 24 24 26 27 26 26 27 28 28 29 29 30 31 34 33 32 32 30 28 27 28 28 28 29 29 28 28 28 28 27 26 26 26 26 27 28 27 27 27 27 26 26 25 24 24 23 21 20 21 22 22 20 19 18 17 16 15 15
4 4 4 5 6 7 10 15 15 12 12 14 17 18 19 19 19 18 18 19 19 20 20 21 23 24 24 24 24 24 25 27 25 25 26 27 27 28 28 28 28 29 28 28 30 30 26 25 26 26 27 28 29 28 29 28 28 28 27 26 27 27 27 27 27 27 27 26 25 25 25 24 23 21 21 23 23 23 23 22 19 16 14 13 14 16
Wind_Direction
220 234 237 236 232 261 260 246 342 335 332 324 310 273 231 243 221 235 177 144 188 221 211 232 236 228 223 214 186 179 196 203 241 242 227 228 174 165 174 168 166 168 168 182 191 178 171 173 174 179 174 172 178 174 173 173 174 178 171 167 171 170 170 145 121 106 97 114 113 106 124 126 95 76 181 153 134 166 178 149 140 146 144 113 116 130
219 250 252 244 210 54 336 351 356 319 315 313 310 313 273 250 221 220 168 144 155 240 240 255 254 230 220 241 222 185 199 188 245 261 236 239 222 198 188 163 163 168 166 173 184 180 178 176 177 184 179 178 184 179 179 179 178 179 169 165 175 178 168 135 121 125 132 145 124 114 126 118 88 87 116 129 137 190 237 192 180 187 153 111 134 167
214 239 250 241 125 91 339 349 324 305 305 294 287 288 285 275 253 93 73 134 151 170 250 258 257 240 207 231 254 206 214 205 225 259 254 242 236 236 235 171 165 171 169 175 185 181 179 181 181 185 184 185 187 185 186 184 180 177 168 173 188 186 171 146 143 152 153 158 135 123 135 139 139 143 154 158 117 103 74 108 138 162 138 114 95 103
239 224 238 223 91 12 302 313 296 298 282 270 275 268 262 261 254 174 108 199 219 159 248 270 271 277 242 222 272 246 218 197 211 242 248 246 236 233 248 181 160 164 170 177 185 183 184 190 186 184 186 187 187 186 190 189 185 178 171 182 193 184 181 167 157 160 164 171 160 156 168 167 177 186 172 154 116 107 99 109 118 140 150 139 122 116
261 263 109 109 94 277 287 287 266 274 265 249 245 253 262 259 262 269 135 152 280 228 242 278 281 283 262 213 240 246 217 187 217 233 236 244 245 238 248 195 161 165 174 180 184 188 193 193 189 188 188 193 196 194 194 191 187 181 175 184 188 175 186 182 164 168 174 175 170 170 177 174 174 148 122 115 100 98 93 95 92 94 102 109 121 127
256 3 105 128 169 210 242 256 236 234 257 251 232 236 258 273 284 293 116 131 244 248 218 244 261 252 236 212 220 245 216 189 225 229 221 236 245 244 235 216 183 169 171 181 185 187 191 186 187 193 194 196 201 201 200 195 191 189 186 191 186 174 188 192 175 176 174 173 177 167 158 151 137 123 128 128 109 114 119 108 101 96 94 95 102 107
213 188 217 256 247 240 241 250 245 236 248 263 266 259 256 266 282 278 238 191 227 251 210 200 237 255 239 225 220 229 208 190 218 227 222 229 232 241 236 224 210 171 168 181 185 184 194 197 194 201 207 205 204 205 204 201 198 196 190 189 183 176 192 198 184 179 170 171 174 153 143 136 132 138 145 145 140 150 154 133 115 103 93 89 88 88
237 181 144 288 262 249 246 245 239 232 238 253 337 291 265 251 262 260 244 239 242 262 238 194 228 259 259 261 255 238 207 181 201 227 231 227 215 216 224 224 224 203 189 193 188 182 197 209 203 204 209 205 204 208 210 205 199 192 190 194 188 179 193 200 190 180 169 167 161 152 150 144 146 158 158 156 162 163 149 122 102 98 93 86 86 88
261 182 173 233 247 244 248 250 238 225 227 241 249 266 268 258 255 255 245 240 243 260 253 210 223 246 249 259 266 246 215 192 204 218 222 234 223 203 204 215 214 213 209 204 192 180 187 200 200 202 207 206 206 209 210 206 199 194 195 200 192 183 193 200 191 180 172 163 154 153 153 151 160 166 158 158 160 151 137 123 112 111 111 104 102 102
247 237 234 229 234 241 241 241 240 230 224 246 284 281 277 272 263 261 256 250 246 250 255 241 228 235 246 246 244 226 207 202 214 213 201 221 249 228 192 222 231 250 258 235 215 199 198 204 202 200 201 205 209 211 210 207 203 199 198 198 190 186 195 199 190 179 174 163 152 152 155 160 168 160 151 158 159 148 141 140 142 140 124 113 109 103
227 214 279 272 247 249 250 250 253 243 229 227 262 268 264 261 256 255 256 258 260 247 246 252 243 242 256 247 246 243 189 177 216 227 189 171 216 256 31 347 300 302 305 288 265 247 226 219 214 208 206 206 207 211 215 212 203 195 192 191 188 188 195 195 188 180 175 167 155 154 161 169 170 155 157 167 163 154 152 152 154 143 128 123 112 101
235 184 197 240 249 262 269 272 281 261 252 255 247 257 260 247 245 253 252 245 253 252 245 251 250 246 248 248 258 250 150 155 224 228 171 150 164 144 92 40 240 303 304 294 313 355 14 348 222 216 223 226 217 213 213 207 198 190 186 189 188 187 194 194 187 181 178 170 159 158 166 174 171 159 166 177 165 160 161 158 155 153 156 157 130 110
253 236 213 204 212 239 256 258 252 232 235 253 249 250 259 249 242 249 249 239 240 253 262 273 271 255 240 249 266 224 136 161 206 171 152 159 155 132 120 124 108 80 339 336 25 19 9 6 292 223 223 226 218 211 208 204 203 198 192 193 188 185 192 193 186 181 180 172 164 165 169 176 175 163 169 178 166 166 168 162 163 167 173 178 168 153
238 261 251 219 185 199 233 246 239 218 201 226 240 237 244 245 247 247 244 246 246 259 268 270 285 276 247 242 241 202 148 168 168 144 149 152 136 135 149 151 137 123 72 47 50 34 359 344 325 256 221 215 210 207 204 200 201 199 191 187 184 184 190 190 184 183 183 175 169 171 173 178 179 163 168 180 173 173 173 167 171 177 181 186 190 197
237 253 235 226 176 163 210 243 257 272 232 216 236 250 250 239 244 253 250 255 261 277 273 254 246 255 253 259 206 160 139 150 158 154 151 142 138 157 176 162 133 107 86 72 66 55 30 12 344 314 206 203 201 198 191 188 193 194 190 187 184 184 187 185 184 188 188 177 171 174 177 183 182 166 166 177 179 179 179 176 175 179 189 195 202 215
242 253 200 210 158 126 222 243 253 286 282 213 220 248 255 237 237 259 271 277 282 287 270 243 229 242 222 38 142 149 140 155 174 165 155 158 165 167 164 146 117 95 90 85 70 61 48 37 37 55 67 171 188 190 187 186 194 197 196 198 192 184 184 185 186 190 189 178 173 175 180 185 185 174 167 173 184 185 183 188 182 179 193 202 208 220
249 261 170 185 170 177 244 260 236 254 285 300 239 244 262 256 247 262 271 271 265 260 259 232 233 242 205 197 201 177 175 188 180 162 163 168 157 142 134 129 116 98 89 84 73 69 66 50 46 68 81 129 172 184 186 186 191 193 195 201 196 184 182 185 185 188 190 184 177 175 180 184 184 181 173 172 187 190 184 194 194 184 193 204 213 224
290 287 208 190 206 210 222 266 290 259 269 282 262 264 301 256 242 248 265 263 250 253 258 242 241 241 235 216 185 189 210 205 179 171 173 160 143 136 132 120 111 104 96 92 84 78 82 76 62 67 88 106 146 170 178 183 187 189 191 196 195 187 182 184 185 187 190 187 181 177 179 182 181 183 180 176 189 196 186 190 198 193 193 204 217 226
295 278 277 264 261 237 194 196 261 259 250 253 271 297 298 264 250 243 254 260 256 259 259 256 254 247 253 245 174 188 210 201 185 190 182 162 159 157 138 127 122 115 109 101 96 89 88 92 82 76 87 109 129 158 174 180 187 194 196 199 197 185 175 176 179 184 188 186 182 179 180 182 179 179 181 180 192 201 193 192 201 204 200 204 217 225
271 275 279 265 269 269 219 192 243 255 234 227 243 270 273 278 279 257 251 262 265 268 269 268 268 256 272 296 166 177 199 201 194 201 196 177 173 159 137 136 132 121 118 110 104 102 98 101 107 98 89 92 108 144 176 178 185 198 198 198 197 189 181 176 172 178 185 184 183 184 183 182 181 181 181 181 189 197 197 194 196 205 207 204 212 222
279 277 272 272 279 276 252 225 252 275 269 238 226 236 246 257 264 259 254 251 256 265 271 274 278 285 308 312 140 170 198 206 199 206 211 184 166 151 139 142 136 124 121 117 113 113 107 108 120 122 112 102 105 118 150 167 183 196 186 178 183 187 186 182 176 176 179 180 184 188 189 189 188 186 185 186 188 191 199 201 198 207 215 209 212 226
279 274 265 269 274 266 252 245 254 267 282 288 278 257 257 261 265 270 262 254 264 275 280 279 281 309 237 234 117 171 194 196 197 200 206 184 157 142 136 139 137 130 125 122 120 119 115 112 114 120 128 138 136 124 118 128 149 169 172 168 170 174 174 176 182 184 181 183 187 189 196 203 200 195 194 196 197 200 209 209 199 204 216 214 214 227
78 277 275 267 263 271 274 273 278 280 271 274 286 281 276 278 269 261 263 267 282 282 284 282 280 346 353 346 58 32 6 172 186 189 206 183 146 134 137 139 138 134 129 126 123 121 119 119 116 115 115 131 157 154 124 114 125 140 154 160 166 172 170 171 184 189 185 184 186 189 200 213 211 205 202 202 203 209 216 210 198 203 214 220 219 225
72 241 264 271 275 281 277 269 272 276 260 245 259 265 270 273 266 264 274 285 283 272 272 275 264 270 335 346 49 29 279 240 188 189 213 177 138 134 145 143 140 139 133 129 127 125 123 121 118 117 111 112 134 158 165 155 135 130 133 134 142 157 166 172 186 194 193 189 188 193 204 213 214 208 204 204 205 210 215 211 205 204 209 221 227 228
326 246 240 261 278 276 266 250 245 256 260 246 250 270 283 282 276 269 271 278 279 274 275 277 271 261 12 342 325 256 262 235 171 173 181 147 138 152 166 155 148 145 139 134 132 130 127 124 119 116 115 111 116 131 154 173 172 152 137 133 132 136 147 158 166 173 181 189 191 193 197 204 208 205 205 205 203 205 209 211 212 207 204 213 225 233
279 281 270 264 269 268 265 265 274 323 318 296 292 290 285 292 298 295 278 263 264 273 274 271 274 287 114 147 304 324 303 276 183 181 176 150 153 174 172 159 153 146 142 139 135 132 128 125 121 116 115 113 111 110 113 128 152 162 158 152 144 140 143 150 157 163 167 174 185 188 187 192 199 204 208 209 210 214 219 222 225 221 219 222 227 239
283 282 277 270 270 274 280 291 310 328 314 294 291 280 269 276 295 299 285 266 273 285 278 270 278 295 295 171 56 20 323 297 292 276 234 163 160 174 165 157 157 152 148 140 134 133 128 124 122 117 114 112 111 108 104 104 107 119 136 148 155 155 151 150 155 159 159 161 172 180 180 181 186 188 199 209 216 224 227 228 231 232 233 240 245 247
272 257 257 264 265 269 277 286 295 300 289 282 286 286 285 288 293 290 277 276 289 287 271 280 301 308 312 319 339 45 8 309 305 327 314 184 154 158 169 180 190 178 162 151 143 141 136 131 128 123 120 118 115 112 109 107 104 105 110 117 135 147 148 151 154 151 153 159 161 160 157 158 163 159 158 182 210 228 229 221 230 239 241 248 255 254
247 252 250 260 262 264 270 274 277 279 280 281 281 279 280 282 282 276 264 265 276 275 272 288 303 295 299 311 306 321 41 318 294 314 295 253 185 172 183 199 207 187 173 173 158 147 143 139 135 133 132 128 126 122 118 116 114 113 113 111 119 130 131 137 143 139 142 151 155 158 155 144 151 161 160 171 209 237 237 234 244 251 247 248 255 257
217 252 257 263 268 268 269 272 276 278 278 280 280 274 271 274 276 275 272 269 267 266 270 281 288 285 292 307 306 310 318 277 276 291 279 262 243 214 205 209 221 216 204 191 170 159 158 149 141 139 138 135 133 132 129 127 125 122 120 118 117 121 123 125 125 126 134 145 151 154 150 132 131 130 115 117 125 216 256 267 275 267 258 258 262 265
174 247 274 279 278 275 277 282 282 277 274 277 281 282 282 283 285 286 287 287 279 270 273 284 292 296 306 310 308 316 320 298 273 273 272 262 252 253 247 231 236 245 240 220 190 173 169 162 153 145 141 142 142 141 139 137 138 139 144 150 137 120 121 128 124 120 123 127 125 124 132 143 130 103 108 124 117 101 122 270 279 271 264 264 263 262
167 250 288 290 278 274 278 277 275 276 276 273 274 282 285 280 276 273 270 272 278 280 286 294 290 293 321 323 322 333 341 332 323 332 324 295 266 259 261 245 235 241 249 252 231 181 167 171 168 152 145 148 149 148 149 147 150 155 168 183 163 143 159 177 168 155 141 129 118 121 140 155 134 109 130 149 144 164 192 222 249 261 262 263 259 252
232 254 269 271 272 277 278 279 286 289 279 270 274 287 291 284 278 274 273 280 293 296 296 290 290 330 348 340 334 346 353 346 344 351 347 333 326 332 317 277 248 236 248 260 244 187 174 176 166 152 147 149 147 145 147 149 154 154 151 159 158 162 186 198 187 182 166 149 148 153 160 158 132 124 153 189 241 269 274 257 247 253 248 248 252 251
255 258 267 268 269 277 280 288 295 281 265 272 286 282 283 286 288 292 303 315 318 320 317 301 304 342 343 326 320 333 339 337 336 336 332 331 333 336 339 325 291 273 287 288 251 188 178 167 150 144 138 133 137 142 143 147 158 158 153 155 161 164 170 164 156 157 152 149 158 161 152 150 154 167 199 247 283 297 301 273 240 249 246 244 247 247
250 257 269 269 266 272 280 285 275 262 264 278 278 282 290 292 296 303 305 309 315 328 334 327 332 345 338 333 335 331 323 321 327 327 323 334 348 342 342 346 328 316 320 314 266 159 149 137 127 128 126 120 132 154 156 158 162 163 170 174 173 174 174 176 177 169 161 164 168 166 164 166 177 206 249 287 300 309 311 291 269 266 261 259 257 250
257 257 258 263 267 271 274 265 256 266 284 280 290 347 350 314 292 290 288 306 328 340 345 343 347 344 333 338 341 331 331 343 338 319 313 331 8 4 358 5 357 342 339 32 121 114 117 120 114 113 111 94 77 157 176 171 163 164 178 182 186 193 192 189 192 189 186 183 179 183 186 185 196 221 259 291 302 310 313 298 287 281 271 268 268 261
247 248 246 252 259 264 266 263 265 277 283 281 336 28 24 9 6 355 325 331 339 351 355 343 338 342 339 348 353 350 353 360 349 332 335 343 359 356 352 360 3 7 30 102 129 117 106 105 105 113 109 57 338 304 300 216 193 199 203 206 215 216 209 209 212 214 212 206 205 209 204 203 213 224 234 255 274 282 280 283 291 294 282 274 276 274
235 236 242 246 248 258 265 266 270 273 279 326 47 48 40 26 13 7 358 344 356 14 15 360 349 360 0 359 360 359 360 1 352 352 353 351 351 354 355 347 348 15 36 62 169 165 154 317 299 283 294 299 284 283 294 284 263 243 230 231 237 232 228 231 230 228 227 226 228 231 228 228 229 229 238 249 259 266 271 286 297 296 287 278 274 271
226 229 250 255 252 256 259 263 268 264 285 25 20 24 33 25 359 339 322 1 5 5 6 359 353 358 359 355 353 351 346 343 5 355 346 344 346 349 347 335 331 341 347 321 256 255 276 279 269 275 291 299 299 293 282 273 268 262 252 248 251 249 246 246 246 248 250 250 253 253 252 251 246 245 250 253 254 260 271 286 293 285 278 275 271 268
244 243 248 249 249 253 253 259 267 255 64 30 9 1 6 9 358 336 287 358 3 355 356 2 356 347 346 345 344 343 332 327 347 343 334 332 333 332 327 322 323 323 319 310 301 298 304 309 300 283 282 285 285 280 273 270 272 271 264 259 257 257 257 257 259 262 261 261 263 266 265 262 259 260 260 256 254 258 263 275 284 284 275 267 265 266
258 263 256 248 247 253 254 257 263 208 80 7 4 357 344 340 347 334 301 331 347 342 342 348 343 336 334 331 327 323 320 323 327 326 323 321 320 322 322 318 315 314 307 304 309 314 316 316 309 293 284 285 286 282 278 275 272 270 268 265 263 262 263 263 262 262 263 264 266 268 268 266 265 264 260 256 257 258 260 269 281 283 273 265 262 261
220 255 261 253 251 254 254 259 263 237 232 340 359 359 346 336 339 336 329 330 331 331 331 329 325 325 324 318 313 310 308 312 314 311 311 311 310 313 313 308 304 302 297 297 304 308 305 300 296 288 282 282 282 278 275 275 273 271 269 267 266 266 265 265 265 265 266 267 268 268 267 265 262 259 256 255 258 260 262 267 274 272 266 263 259 257
248 259 252 245 255 258 249 255 261 250 327 345 353 360 4 6 352 342 336 328 325 325 323 319 317 316 315 311 310 308 305 307 308 305 303 303 303 304 303 301 299 295 291 290 290 289 289 288 286 283 281 281 281 279 276 273 270 269 268 267 267 268 268 269 269 269 268 267 266 264 263 262 260 258 257 257 259 262 263 264 268 269 262 252 248 250
332 272 273 282 316 278 254 257 220 192 282 330 345 352 352 343 333 330 325 317 317 316 313 311 311 312 313 311 309 307 303 301 300 297 296 295 296 298 297 297 296 292 288 287 285 284 286 286 283 282 281 280 278 276 276 274 271 269 268 267 266 266 268 269 269 270 270 269 267 266 265 265 263 262 261 260 260 261 261 260 263 263 254 247 247 250
78 29 340 329 349 312 287 306 333 288 292 329 350 346 336 332 326 320 312 306 308 309 308 310 314 318 320 316 309 307 304 300 298 296 293 291 291 292 290 289 289 288 286 284 283 282 283 282 280 280 279 278 276 274 273 274 274 272 269 266 265 265 267 268 268 268 268 269 268 268 269 268 266 264 262 260 260 259 258 257 256 254 252 251 251 248
31 18 2 337 313 313 302 301 314 316 317 328 329 321 319 319 318 324 326 325 328 327 322 317 314 313 313 310 304 301 299 297 296 293 291 291 290 289 289 288 286 285 282 280 279 278 277 276 275 275 274 274 274 274 274 272 271 269 266 264 265 265 264 265 266 266 267 268 269 270 269 267 265 263 261 261 260 259 257 253 248 248 252 252 247 239
46 24 352 309 298 300 300 307 317 319 318 318 314 314 320 325 332 345 349 343 339 335 327 319 312 307 305 303 300 298 296 296 296 294 292 292 290 288 288 287 286 285 284 282 280 278 276 276 275 275 276 276 273 271 270 269 269 268 267 266 266 264 263 264 266 265 263 262 264 267 268 268 265 263 261 261 261 262 260 251 244 245 249 247 244 241
45 30 345 300 290 288 296 312 315 310 308 312 313 320 336 342 342 341 337 329 325 321 316 312 309 305 301 299 298 298 297 296 296 295 294 293 292 291 289 288 286 286 285 284 283 282 282 283 282 279 281 284 284 280 275 272 271 271 270 268 266 264 264 265 265 262 260 261 263 264 266 268 268 265 262 260 260 261 259 250 243 241 238 236 242 245
313 330 315 298 296 292 290 306 320 320 314 315 320 329 337 337 330 323 320 317 314 311 310 309 306 302 298 298 298 298 296 295 295 294 293 292 291 291 290 289 288 286 285 287 289 288 287 288 287 285 284 286 286 285 281 277 274 272 270 269 267 266 267 269 269 266 264 265 266 263 263 265 265 265 265 262 260 259 255 247 240 235 230 233 241 240
294 298 310 309 301 294 307 331 344 339 310 307 317 322 323 320 315 313 314 312 310 312 312 311 309 307 303 301 301 299 296 296 296 294 294 294 292 291 290 289 286 284 284 288 291 291 290 287 285 285 284 283 283 282 280 278 276 273 270 268 266 264 264 266 268 267 265 264 263 260 259 260 262 264 262 257 256 259 253 241 233 233 236 242 240 223
327 347 5 336 307 301 317 327 330 319 302 305 313 313 311 311 312 311 312 313 315 317 318 316 314 312 309 307 305 304 302 302 301 301 301 299 296 294 293 292 289 287 287 287 286 286 288 287 283 281 280 280 281 281 279 277 276 274 271 269 266 263 261 261 263 263 261 259 258 256 254 254 255 257 256 253 254 257 251 236 224 222 228 232 220 200